Terminal Aerodrome Forecast
Issued by NWS Portland, OR

Home | Current Version | Previous Version | Text Only | Print | Product List | Glossary On
Versions: 1 2 3 4 5 6 7 8 9 10 11 12 13 14 15 16 17 18 19 20 21 22 23 24 25 26 27 28 29 30 31 32 33 34
000
FTUS46 KPQR 231137
TAFTTD
TAF
KTTD 231137Z 2312/2412 11005KT P6SM -SHRA SCT060 OVC100
     FM231800 12006KT P6SM SCT045 BKN060 OVC100
      TEMPO 2322/2402 -RA
     FM240200 13004KT P6SM -RA BKN040 OVC060
     FM240600 19007KT 5SM RA BR BKN025 OVC040=

USA.gov is the U.S. government's official web portal to all federal, state and local government web resources and services.